STARLINK-2031, 47648

Orbit data source: Space-Track

STARLINK-2031, 47648 is a payload satellite owned by SpaceX/Seattle (US) in LEO that was launched on Tue, 16 Feb 2021 UTC via an FALCON 9 launch vehicle from the Air Force Eastern Test Range (AFETR). Payload-class satellites include a variety of spacecraft equipped with specific instruments for various scientific and technological missions. These include communications satellites like Starlink; space stations such as the ISS; scientific satellites like the Hubble; Earth observation satellites from companies like Planet Labs, Umbra, and HawkEye 360; GPS; miniature CubeSats for education and research; and military/defense satellites.

Loading next visibility...
Identifier
47648, 2021-012AE
Orbit
LEO
Country
Flag of USUS
Related business
Manufacturer
SpaceX/Seattle
Mission
Operational Commercial Communications
Bus & Motor
STARLINK, Unknown motor
Mass
260 kg wet, ~248 kg dry
Launch date (UTC)
2021-02-16 (5 years ago)
Launch vehicle
FALCON 9
Launch site
Air Force Eastern Test Range (AFETR)
Object type
Payload
Rocket body
Debris
Shape & HBR
Box + 1 Pan, 10.1 m
Radar Cross Section
13.562 m², Large (>1 m²)

Expand to show TLE details & history
Last TLE update: 2 days ago

TLE from 2 days ago
0 STARLINK-2031
1 47648U 21012AE  26171.35888779  .00000967  00000-0  42935-4 0  9996
2 47648  53.1598 291.8945 0001012  94.7980 265.3137 15.31693581296030
Epoch: 2026-06-20T08:36Z
TLE epoch observation values (Epoch: 2026-06-20T08:36:47.905Z)
Latitude
Longitude
-105.87975°
Altitude
471.716 km
Speed
7.631 km/s
True Right ascension
19h 27m 34s
True Declination
0° 00' 00"
Sunlit
Object was in full shadow at epoch
Visualization orbit readout
Latitude
Unknown
Longitude
Unknown
Altitude
Unknown
Speed
Unknown
Apparent Right ascension
Unknown
Apparent Declination
Unknown
Sunlit
N/A
Visualization observer readout
Local Sidereal Time
21:40:12
Azimuth
Unknown
Elevation
Unknown
Doppler factor
Unknown
Orbital elements
Apogee altitude
471.709 km
Perigee altitude
470.323 km
Semi-major axis
6,849.153 km
Eccentricity
0.0001
Inclination
53.1598°
RAAN
291.8945°
Arg. of periapsis
94.798°
True anomaly
265.30214°
Mean anomaly
265.3137°
Eccentric anomaly
265.30792°
Mean motion
3.82902 °/min
Orbital period
94.02 mins
BSTAR
0.000042935
Loading maneuver chart data...
Computing Atmospheric mass density...

Documentation

Showing up to 5 results
|